Weather History for KMHT - April, 2013

Change the Weather History Date:

Tuesday, April 2, 2013

  Actual Average Record
Temperature  
Mean Temperature 34 °F -  
Max Temperature 39 °F 51 °F 74 °F (1986)
Min Temperature 28 °F 32 °F 15 °F (1956)
Degree Days  
Heating Degree Days 32    
Cooling Degree Days 0    
Moisture  
Dew Point 9 °F    
Average Humidity 36    
Maximum Humidity 45    
Minimum Humidity 26    
Precipitation  
Precipitation 0.00 in 0.19 in 1.52 in (1973)
Month to date precipitation 0.37  
Year to date precipitation 10.50  
Snow  
Snow 0.00 in - - ()
Month to date snowfall  
Since 1 July snowfall  
Snow Depth -    
Sea Level Pressure  
Sea Level Pressure 29.87 in    
Wind  
Wind Speed 10 mph (West)    
Max Wind Speed 22 mph    
Max Gust Speed 33 mph    
Visibility 10 miles    
Events Snow    
T = Trace of Precipitation, MM = Missing Value Source: NWS Daily Summary

Daily Weather History Graph

Daily Weather History Graph

Search for Another Location

Airport or City:

Trip Planner

Search our weather history database for the weather conditions in past years. The results will help you decide how hot, cold, wet, or windy it might be!

Date:

Astronomy

Apr. 02, 2013 Rise Set
Actual Time 6:25 AM EDT 7:13 PM EDT
Civil Twilight 5:57 AM EDT 7:42 PM EDT
Nautical Twilight 5:23 AM EDT 8:16 PM EDT
Astronomical Twilight 4:47 AM EDT 8:51 PM EDT
Moon 1:21 AM EDT (4/2) 11:07 AM EDT (4/2)
Length of Visible Light 13h 45m
Length of Day
12h 47m
Waning Gibbous, 56% of the Moon is Illuminated
Apr 2
Waning Gibbous
Apr 3
Last Quarter
Apr 10
New
Apr 18
First Quarter
Apr 25
Full

Hourly Weather History & Observations

Time (EDT) Temp. Windchill Dew Point Humidity Pressure Visibility Wind Dir Wind Speed Gust Speed Precip Events Conditions
12:53 AM 33.1 °F 26.9 °F 10.9 °F 40% 29.82 in 10.0 mi West 6.9 mph - N/A   Clear
1:53 AM 33.1 °F 26.9 °F 12.0 °F 42% 29.83 in 10.0 mi Variable 6.9 mph - N/A   Clear
2:53 AM 32.0 °F 24.8 °F 10.9 °F 42% 29.83 in 10.0 mi West 8.1 mph - N/A   Clear
3:53 AM 30.9 °F 22.8 °F 7.0 °F 37% 29.84 in 10.0 mi West 9.2 mph 17.3 mph N/A   Clear
4:53 AM 30.0 °F 25.2 °F 8.1 °F 40% 29.84 in 10.0 mi WSW 4.6 mph - N/A   Clear
5:53 AM 30.0 °F 24.1 °F 9.0 °F 41% 29.86 in 10.0 mi WSW 5.8 mph - N/A   Clear
6:53 AM 28.9 °F 22.8 °F 10.0 °F 45% 29.88 in 10.0 mi WSW 5.8 mph - N/A   Clear
7:53 AM 30.9 °F 22.8 °F 9.0 °F 40% 29.88 in 10.0 mi West 9.2 mph - N/A   Clear
8:53 AM 32.0 °F 22.1 °F 7.0 °F 35% 29.88 in 10.0 mi West 13.8 mph 23.0 mph N/A   Partly Cloudy
9:53 AM 34.0 °F 22.1 °F 5.0 °F 30% 29.88 in 10.0 mi West 21.9 mph 33.4 mph N/A   Scattered Clouds
10:53 AM 36.0 °F 26.7 °F 3.9 °F 26% 29.88 in 10.0 mi West 15.0 mph 26.5 mph N/A   Mostly Cloudy
11:53 AM 36.0 °F 26.3 °F 6.1 °F 29% 29.87 in 10.0 mi West 16.1 mph 28.8 mph N/A   Mostly Cloudy
12:53 PM 36.0 °F 26.7 °F 12.0 °F 37% 29.86 in 10.0 mi WSW 15.0 mph 25.3 mph N/A   Partly Cloudy
1:53 PM 37.0 °F 29.3 °F 10.9 °F 34% 29.85 in 10.0 mi WSW 11.5 mph 21.9 mph 0.00 in Snow Light Snow
2:53 PM 39.0 °F 29.9 °F 6.1 °F 26% 29.84 in 10.0 mi West 17.3 mph 31.1 mph N/A   Mostly Cloudy
3:53 PM 37.9 °F 29.6 °F 9.0 °F 30% 29.83 in 10.0 mi West 13.8 mph 27.6 mph N/A   Mostly Cloudy
4:53 PM 37.0 °F 27.4 °F 8.1 °F 30% 29.85 in 10.0 mi West 17.3 mph 28.8 mph N/A   Scattered Clouds
5:53 PM 36.0 °F 26.3 °F 7.0 °F 30% 29.87 in 10.0 mi West 16.1 mph 31.1 mph N/A   Mostly Cloudy
6:53 PM 34.0 °F 28.0 °F 10.0 °F 37% 29.90 in 10.0 mi Variable 6.9 mph 19.6 mph N/A   Scattered Clouds
7:53 PM 34.0 °F 25.0 °F 10.0 °F 37% 29.92 in 10.0 mi West 12.7 mph 19.6 mph N/A   Partly Cloudy
8:53 PM 33.1 °F 24.9 °F 9.0 °F 37% 29.94 in 10.0 mi West 10.4 mph 17.3 mph N/A   Partly Cloudy
9:53 PM 33.1 °F 25.5 °F 9.0 °F 37% 29.94 in 10.0 mi West 9.2 mph 17.3 mph N/A   Clear
10:53 PM 32.0 °F 24.2 °F 10.9 °F 42% 29.94 in 10.0 mi WSW 9.2 mph - N/A   Scattered Clouds
11:53 PM 32.0 °F 22.5 °F 12.9 °F 45% 29.93 in 10.0 mi West 12.7 mph 17.3 mph N/A   Partly Cloudy